Skip Page Navigation
NASA JPL Caltech
NASA Logo - Jet Propulsion Laboratory + View the NASA Portal
+ Center for Near-Earth Object Studies
JPL Home Earth Solar System Stars & Galaxies Technology
JPL Solar System Dynamics
BODIES ORBITS EPHEMERIDES TOOLS PHYSICAL DATA DISCOVERY FAQ SITE MAP
IMPORTANT: The SSD Announcement email list is now available. Major changes are coming in the near future, including possible hostname and/or URL changes. To be notified of such changes, subscribe to this email list.

Please visit this page for more details.


JPL Small-Body Database Browser
Search: [ help ]  
185351 (2006 VV68)
Classification: Main-belt Asteroid          SPK-ID: 2185351
Ephemeris | Orbit Diagram | Orbital Elements | Mission Design | Physical Parameters | Discovery Circumstances | Close-Approach Data ]

[ show orbit diagram ]
Orbital Elements at Epoch 2459000.5 (2020-May-31.0) TDB
Reference: JPL 12 (heliocentric ecliptic J2000)
 Element Value Uncertainty (1-sigma)   Units 
e .0590067964598438 6.6332e-08  
a 2.9140256651761 3.978e-08 au
q 2.742078345872293 2.0638e-07 au
i 1.549637459441647 6.1409e-06 deg
node 229.1610122044318 0.00026829 deg
peri 137.3215760997257 0.00027388 deg
M 316.6056077789673 5.8755e-05 deg
tp 2459219.512849095655
(2021-Jan-05.01284910)
0.00029834 TDB
period 1816.93121251323
4.97
3.7205e-05
1.019e-07
d
yr
n .1981362846984383 4.0572e-09 deg/d
Q 3.085972984479907 4.2127e-08 au
  Orbit Determination Parameters
   # obs. used (total)      199  
   data-arc span      6347 days (17.38 yr)  
   first obs. used      2001-12-14  
   last obs. used      2019-05-01  
   planetary ephem.      DE431  
   SB-pert. ephem.      SB431-N16  
   condition code      0  
   norm. resid. RMS      .65217  
   source      ORB  
   producer      Otto Matic  
   solution date      2019-Jul-14 09:04:56  

Additional Information
 Earth MOID = 1.74046 au 
 Jupiter MOID = 2.2127 au 
 T_jup = 3.279 
[ show covariance matrix ]

Ephemeris | Orbit Diagram | Orbital Elements | Mission Design | Physical Parameters | Discovery Circumstances | Close-Approach Data ]

Physical Parameter Table
Parameter Symbol Value Units Sigma Reference Notes
absolute magnitude H 16.2   n/a MPO436915  

185351 (2006 VV68)          Discovered 2006-Nov-11 by Spacewatch at Kitt Peak
Reference: 20080420/Numbers.arcLast Updated: 2008-04-23

[ hide close-approach data ]
Close-Approach Data   ...sorted by Date/Time (TDB)
Date/Time (TDB) Time Uncertainty
(days_HH:MM)
Body Nominal Distance (au) Minimum Distance (au) Maximum Distance (au) V-relative (km/s) V-infinity (km/s) JD (TDB) Time Uncertainty (minutes) Semi-major axis (km) Semi-minor axis (km) range-LOV angle (deg) N-sigma BP Orbit Ref. Reference Modified
2184-Mar-26 13:34 00:06 Psych 0.0188874822536519 0.0188496917354523 0.0189256366900948 1.73644563925437 1.73644527034648 2518835.065054420 5.80973241872615 4530.04043752515 69.5418273481624 65.398436252902 36767.5262567112 T 12 CATAB v2.0e-lin.ifort 2019-Jul-14 09:04:58 2019-Jul-14 09:04
Ephemeris | Orbit Diagram | Orbital Elements | Mission Design | Physical Parameters | Discovery Circumstances | Close-Approach Data ]
ABOUT SSD CREDITS/AWARDS PRIVACY/COPYRIGHT GLOSSARY LINKS
FirstGov 2020-Jun-06 15:38 UT
(server date/time)  
NASA Home Page
Site Manager:   Ryan S. Park
Webmaster  Alan B. Chamberlin